DW9244 Weather Reports


Display with metric or nautical units.
time (UTC)temp
F
wind
direction
speed
MPH
gust
MPH
rain 1hr
in
rain 24hr
in
rain mn
in
humidity
%
barometer
mb
20260503013005 49 195 0.0 0.0 0.00 0.00 0.00 1 1011.0
20260503011611 49 195 0.0 0.0 0.00 0.00 0.00 1 1011.0
20260503010056 50 195 0.0 0.0 0.00 0.00 0.00 1 1010.9
20260503004552 50 195 0.0 0.0 0.00 0.00 0.00 1 1010.7
20260503003051 50 195 0.0 0.0 0.00 0.00 0.00 1 1010.6
20260503001557 50 195 0.0 0.0 0.00 0.00 0.00 1 1010.6
20260503000042 50 195 0.0 0.0 0.00 0.00 0.00 1 1010.6
20260502234542 50 195 0.0 0.0 0.00 0.00 0.00 1 1010.6
20260502233033 50 195 0.0 0.0 0.00 0.00 0.00 1 1010.6
20260502231530 51 195 0.0 0.0 0.00 0.00 0.00 1 1010.7
20260502230032 51 195 0.0 0.0 0.00 0.00 0.00 1 1010.8
20260502224522 51 195 0.0 0.0 0.00 0.00 0.00 1 1010.9
20260502223018 51 195 0.0 0.0 0.00 0.00 0.00 1 1010.7
20260502221512 51 195 0.0 0.0 0.00 0.00 0.00 1 1010.7
20260502220007 51 195 0.0 0.0 0.00 0.00 0.00 1 1010.6
20260502214503 51 195 0.0 5.0 0.00 0.00 0.00 1 1010.7
20260502213100 51 188 0.0 4.0 0.00 0.00 0.00 1 1010.4
20260502211555 51 186 0.0 5.0 0.00 0.00 0.00 1 1010.6
20260502210104 51 209 0.0 3.0 0.00 0.00 0.00 1 1010.6
20260502204553 51 209 0.0 2.0 0.00 0.00 0.00 1 1010.8
20260502203042 51 198 0.0 3.0 0.00 0.00 0.00 1 1010.9
20260502201548 51 236 0.0 3.0 0.00 0.00 0.00 1 1011.0
20260502200032 51 192 0.0 4.0 0.00 0.00 0.00 1 1011.0
20260502194528 51 192 1.0 4.0 0.00 0.00 0.00 1 1011.1
20260502193025 51 245 1.0 7.0 0.00 0.00 0.00 1 1011.4
20260502191520 52 214 0.0 4.0 0.00 0.00 0.00 1 1011.4
20260502190016 52 180 2.0 6.0 0.00 0.00 0.00 1 1011.7
20260502184525 52 236 2.0 7.0 0.00 0.00 0.00 1 1011.9
20260502183024 51 223 2.0 11.0 0.00 0.00 0.00 1 1012.1
20260502181505 52 192 2.0 9.0 0.00 0.00 0.00 1 1011.9
20260502163107 52 222 0.0 4.0 0.00 0.00 0.00 1 1012.2
20260502161624 53 213 0.0 7.0 0.00 0.00 0.00 1 1012.2
20260502151545 53 125 1.0 6.0 0.00 0.00 0.00 1 1012.5
20260502123057 51 192 0.0 0.0 0.00 0.00 0.00 1 1013.1
20260502121555 51 192 0.0 6.0 0.00 0.00 0.00 1 1013.0
20260502114544 50 194 0.0 6.0 0.00 0.00 0.00 1 1012.8
20260502113038 49 276 0.0 7.0 0.00 0.00 0.00 1 1012.8
20260502111535 49 196 0.0 6.0 0.00 0.00 0.00 1 1012.7
20260502110034 48 237 0.0 5.0 0.00 0.00 0.00 1 1012.6
20260502104534 48 200 0.0 0.0 0.00 0.00 0.00 1 1012.7
20260502103040 48 200 0.0 0.0 0.00 0.00 0.00 1 1012.4
20260502101541 47 198 0.0 0.0 0.00 0.00 0.00 1 1012.3
20260502091514 46 233 0.0 4.0 0.00 0.00 0.00 1 1012.3
20260502070035 48 237 0.0 1.0 0.00 0.00 0.00 1 1012.1
20260502064532 48 237 0.0 0.0 0.00 0.00 0.00 1 1012.0
20260502063028 49 237 0.0 1.0 0.00 0.00 0.00 1 1012.2
20260502061522 49 236 0.0 4.0 0.00 0.00 0.00 1 1012.4
20260502060118 49 258 0.0 4.0 0.00 0.00 0.00 1 1012.3
20260502054514 49 273 0.0 4.0 0.00 0.00 0.00 1 1012.4
20260502053009 49 273 0.0 6.0 0.00 0.00 0.00 1 1012.7
20260502051505 48 206 0.0 2.0 0.00 0.00 0.00 1 1012.7
20260502050105 49 209 0.0 3.0 0.00 0.00 0.00 1 1012.6
20260502044556 49 236 0.0 1.0 0.00 0.00 0.00 1 1012.7
20260502043058 49 233 0.0 2.0 0.00 0.00 0.00 4 1012.6
20260502041605 49 232 0.0 0.0 0.00 0.00 0.00 7 1012.7
20260502040045 50 214 0.0 0.0 0.00 0.00 0.00 10 1012.7
20260502034538 50 214 0.0 7.0 0.00 0.00 0.00 10 1012.8
20260502033040 50 166 0.0 3.0 0.00 0.00 0.00 9 1012.8
20260502031530 50 159 0.0 2.0 0.00 0.00 0.00 9 1012.7
20260502030025 50 154 0.0 0.0 0.00 0.00 0.00 10 1012.7
20260502024520 50 248 0.0 3.0 0.00 0.00 0.00 13 1012.6
20260502023019 51 250 0.0 0.0 0.00 0.00 0.00 15 1012.5
20260502021512 51 250 0.0 0.0 0.00 0.00 0.00 17 1012.5
20260502020008 51 240 0.0 4.0 0.00 0.00 0.00 18 1012.6
20260502014508 51 237 0.0 1.0 0.00 0.00 0.00 21 1012.5